Shawano, WI

11:19 PM CDT on March 28, 2017 (GMT -0500)
Shawano

Weather History for KEZS - February, 2013

Change the Weather History Date:

Sunday, February 10, 2013

  Actual Average (KCLI) Record (KCLI)
Temperature  
Mean Temperature 30 °F -  
Max Temperature 41 °F 27 °F 48 °F (1991)
Min Temperature 19 °F 4 °F -22 °F (1982)
Degree Days  
Heating Degree Days 35    
Moisture  
Dew Point 29 °F    
Average Humidity 91    
Maximum Humidity 100    
Minimum Humidity 80    
Precipitation  
Precipitation 0.30 in - - ()
Sea Level Pressure  
Sea Level Pressure 29.73 in    
Wind  
Wind Speed 5 mph (East)    
Max Wind Speed 15 mph    
Max Gust Speed 24 mph    
Visibility 4 miles    
Events Rain , Thunderstorm    
Averages and records for this station are not official NWS values.
T = Trace of Precipitation, MM = Missing Value Source: NWS Daily Summary

Daily Weather History Graph

Daily Weather History Graph

Search for Another Location

Airport or City:

Trip Planner

Search our weather history database for the weather conditions in past years. The results will help you decide how hot, cold, wet, or windy it might be!

Date:

Astronomy

Feb. 10, 2013 Rise Set
Actual Time 7:01 AM CST 5:15 PM CST
Civil Twilight 6:31 AM CST 5:46 PM CST
Nautical Twilight 5:56 AM CST 6:20 PM CST
Astronomical Twilight 5:22 AM CST 6:54 PM CST
Moon 6:48 AM CST (2/10) 6:10 PM CST (2/10)
Length of Visible Light 11h 15m
Length of Day
10h 14m
New Moon, 0% of the Moon is Illuminated
Feb 10
New Moon
Feb 17
First Quarter
Feb 25
Full
Mar 4
Last Quarter
Mar 11
New

Hourly Weather History & Observations

Time (CST) Temp. Windchill Dew Point Humidity Pressure Visibility Wind Dir Wind Speed Gust Speed Precip Events Conditions
12:15 AM 28.4 °F 21.2 °F 23.0 °F 80% 30.07 in 10.0 mi South 6.9 mph - N/A   Overcast
12:35 AM 28.4 °F 24.6 °F 23.0 °F 80% 30.07 in 10.0 mi SSW 3.5 mph - N/A   Overcast
12:55 AM 28.4 °F - 23.0 °F 80% 30.06 in 10.0 mi Calm Calm - N/A   Overcast
1:15 AM 28.4 °F - 23.0 °F 80% 30.06 in 10.0 mi Calm Calm - N/A   Overcast
1:35 AM 28.4 °F - 23.0 °F 80% 30.06 in 10.0 mi Calm Calm - N/A   Overcast
1:55 AM 28.4 °F - 23.0 °F 80% 30.06 in 10.0 mi Calm Calm - N/A   Overcast
2:15 AM 28.4 °F - 23.0 °F 80% 30.06 in 10.0 mi Calm Calm - N/A   Overcast
2:35 AM 28.4 °F - 23.0 °F 80% 30.06 in 10.0 mi Calm Calm - N/A   Overcast
2:55 AM 28.4 °F - 23.0 °F 80% 30.04 in 10.0 mi Calm Calm - N/A   Overcast
3:15 AM 28.4 °F - 23.0 °F 80% 30.03 in 10.0 mi Calm Calm - N/A   Overcast
3:35 AM 28.4 °F - 24.8 °F 86% 30.02 in 10.0 mi Calm Calm - N/A   Overcast
3:55 AM 28.4 °F 24.6 °F 24.8 °F 86% 30.01 in 7.0 mi NE 3.5 mph - N/A   Overcast
4:15 AM 28.4 °F 24.6 °F 24.8 °F 86% 30.00 in 7.0 mi ENE 3.5 mph - N/A   Overcast
4:35 AM 26.6 °F 20.0 °F 23.0 °F 86% 30.00 in 7.0 mi East 5.8 mph - N/A   Mostly Cloudy
4:55 AM 26.6 °F 22.6 °F 23.0 °F 86% 29.99 in 5.0 mi East 3.5 mph - N/A   Scattered Clouds
5:15 AM 26.6 °F 22.6 °F 23.0 °F 86% 29.99 in 5.0 mi ENE 3.5 mph - N/A   Clear
5:35 AM 24.8 °F 19.1 °F 23.0 °F 93% 29.99 in 4.0 mi East 4.6 mph - N/A   Scattered Clouds
5:55 AM 23.0 °F 17.0 °F 21.2 °F 93% 29.98 in 3.0 mi East 4.6 mph - N/A   Clear
6:15 AM 21.2 °F 16.4 °F 19.4 °F 93% 29.98 in 3.0 mi ENE 3.5 mph - N/A   Scattered Clouds
6:35 AM 19.4 °F 14.3 °F 17.6 °F 93% 29.98 in 3.0 mi NE 3.5 mph - N/A   Clear
6:55 AM 21.2 °F 12.6 °F 19.4 °F 93% 29.95 in 1.8 mi NE 6.9 mph - N/A   Scattered Clouds
7:15 AM 21.2 °F 12.6 °F 21.2 °F 100% 29.96 in 2.5 mi ENE 6.9 mph - N/A   Scattered Clouds
7:35 AM 23.0 °F 15.8 °F 21.2 °F 93% 29.93 in 2.0 mi ENE 5.8 mph - N/A   Scattered Clouds
7:55 AM 23.0 °F 13.9 °F 21.2 °F 93% 29.92 in 2.0 mi NE 8.1 mph - N/A   Clear
8:15 AM 23.0 °F 17.0 °F 21.2 °F 93% 29.90 in 2.5 mi NE 4.6 mph - N/A   Mostly Cloudy
8:35 AM 23.0 °F 13.9 °F 21.2 °F 93% 29.87 in 2.0 mi East 8.1 mph - N/A   Overcast
8:55 AM 26.6 °F 21.2 °F 23.0 °F 86% 29.86 in 2.0 mi ENE 4.6 mph - N/A   Mostly Cloudy
9:15 AM 26.6 °F 22.6 °F 23.0 °F 86% 29.87 in 2.5 mi NE 3.5 mph - N/A   Mostly Cloudy
9:35 AM 28.4 °F 22.2 °F 26.6 °F 93% 29.87 in 2.5 mi East 5.8 mph - N/A   Overcast
9:55 AM 30.2 °F 23.4 °F 30.2 °F 100% 29.87 in 3.0 mi ESE 6.9 mph - N/A   Overcast
10:15 AM 32.0 °F 25.6 °F 30.2 °F 93% 29.87 in 2.5 mi East 6.9 mph - N/A   Overcast
10:35 AM 32.0 °F 25.6 °F 30.2 °F 93% 29.85 in 1.8 mi East 6.9 mph - N/A   Overcast
10:55 AM 32.0 °F 24.2 °F 30.2 °F 93% 29.84 in 2.0 mi ENE 9.2 mph - N/A   Overcast
11:15 AM 32.0 °F 24.2 °F 32.0 °F 100% 29.82 in 3.0 mi East 9.2 mph - N/A   Overcast
11:35 AM 33.8 °F 24.3 °F 32.0 °F 93% 29.79 in 4.0 mi East 13.8 mph - N/A   Light Drizzle
11:55 AM 33.8 °F 26.4 °F 32.0 °F 93% 29.77 in 5.0 mi ESE 9.2 mph - N/A   Overcast
12:15 PM 33.8 °F 24.3 °F 32.0 °F 93% 29.74 in 2.5 mi East 13.8 mph 18.4 mph N/A Rain Rain
12:35 PM 33.8 °F 25.3 °F 32.0 °F 93% 29.72 in 2.5 mi East 11.5 mph - N/A Rain Light Rain
12:55 PM 33.8 °F 25.3 °F 32.0 °F 93% 29.70 in 5.0 mi East 11.5 mph - N/A   Overcast
1:15 PM 33.8 °F 24.3 °F 32.0 °F 93% 29.67 in 2.5 mi East 13.8 mph 19.6 mph N/A Rain Light Rain
1:35 PM 33.8 °F 23.9 °F 32.0 °F 93% 29.64 in 4.0 mi East 15.0 mph 24.2 mph N/A Rain Light Rain
1:55 PM 33.8 °F 24.3 °F 32.0 °F 93% 29.62 in 4.0 mi East 13.8 mph 18.4 mph 0.02 in Rain Light Rain
2:15 PM 33.8 °F 24.8 °F 32.0 °F 93% 29.59 in 3.0 mi East 12.7 mph 19.6 mph 0.04 in Rain Light Rain
2:35 PM 33.8 °F 24.8 °F 32.0 °F 93% 29.57 in 4.0 mi East 12.7 mph 21.9 mph 0.08 in Rain Light Rain
2:55 PM 33.8 °F 23.9 °F 32.0 °F 93% 29.55 in 3.0 mi East 15.0 mph 20.7 mph 0.08 in Rain Light Rain
3:35 PM 33.8 °F 25.8 °F 32.0 °F 93% 29.55 in 1.8 mi ESE 10.4 mph - 0.12 in   Overcast
4:15 PM 33.8 °F 25.8 °F 32.0 °F 93% 29.53 in 5.0 mi East 10.4 mph - N/A Rain Rain
4:35 PM 33.8 °F 27.0 °F 32.0 °F 93% 29.51 in 3.0 mi East 8.1 mph - N/A   Light Drizzle
5:55 PM 35.6 °F 30.7 °F 33.8 °F 93% 29.47 in 2.0 mi ESE 5.8 mph - 0.02 in   Drizzle
6:15 PM 35.6 °F 31.7 °F 33.8 °F 93% 29.46 in 5.0 mi ESE 4.6 mph - N/A   Overcast
6:35 PM 35.6 °F 32.8 °F 35.6 °F 100% 29.45 in 2.5 mi East 3.5 mph - N/A Rain Light Rain
6:55 PM 35.6 °F 31.7 °F 35.6 °F 100% 29.44 in 4.0 mi SE 4.6 mph - N/A   Overcast
7:15 PM 35.6 °F 31.7 °F 35.6 °F 100% 29.43 in 5.0 mi ESE 4.6 mph - N/A   Overcast
7:35 PM 37.4 °F - 35.6 °F 93% 29.42 in 5.0 mi Calm Calm - N/A   Overcast
7:55 PM 37.4 °F 34.9 °F 35.6 °F 93% 29.41 in 4.0 mi East 3.5 mph - N/A   Overcast
8:15 PM 37.4 °F 33.8 °F 35.6 °F 93% 29.39 in 2.0 mi ESE 4.6 mph - N/A   Drizzle
8:35 PM 37.4 °F 32.1 °F 35.6 °F 93% 29.37 in 4.0 mi SSE 6.9 mph - N/A Rain Light Rain
8:55 PM 37.4 °F - 37.4 °F 100% 29.37 in 2.0 mi Calm Calm - N/A Rain Light Rain
9:15 PM 37.4 °F 32.8 °F 37.4 °F 100% 29.36 in 2.5 mi SSE 5.8 mph - 0.02 in Rain Rain
9:35 PM 39.2 °F 35.0 °F 37.4 °F 93% 29.34 in 3.0 mi SSE 5.8 mph - 0.06 in Rain Light Rain
9:55 PM 39.2 °F 35.0 °F 37.4 °F 93% 29.34 in 5.0 mi South 5.8 mph - 0.06 in Thunderstorm Unknown
10:15 PM 39.2 °F 34.2 °F 37.4 °F 93% 29.33 in 3.0 mi SSE 6.9 mph - N/A   Overcast
10:35 PM 41.0 °F 37.1 °F 39.2 °F 93% 29.32 in 3.0 mi South 5.8 mph - N/A   Overcast
10:55 PM 41.0 °F 38.0 °F 37.4 °F 87% 29.32 in 2.5 mi South 4.6 mph - N/A   Overcast
11:15 PM 41.0 °F 35.8 °F 37.4 °F 87% 29.31 in 3.0 mi South 8.1 mph - N/A   Overcast
11:35 PM 41.0 °F 39.0 °F 37.4 °F 87% 29.31 in 4.0 mi SSW 3.5 mph - N/A   Overcast
11:55 PM 41.0 °F 37.1 °F 37.4 °F 87% 29.30 in 5.0 mi South 5.8 mph - N/A   Light Drizzle